Temperature
12 12 12 12 12 12 12 12 12 12 12 12 12 12 12 12 12 12 11 11 11 11 11 11 10 10 10 10 10 10 10 10 9 9 9 9 9 9 9 9 9 9 9
11 11 11 11 11 11 11 11 11 11 11 11 11 11 11 11 11 11 11 11 11 11 11 11 10 10 10 10 10 10 9 9 9 9 9 9 9 9 9 9 9 9 9
11 11 11 11 11 11 11 11 11 11 11 11 11 11 11 11 11 11 10 11 11 11 10 10 10 10 10 9 9 9 9 9 9 9 9 9 9 9 9 9 8 8 8
11 11 11 11 11 11 11 11 11 10 11 11 10 10 10 10 10 10 10 10 10 10 10 10 10 9 9 9 9 9 9 9 9 8 8 8 8 8 8 8 8 8 8
11 10 10 10 10 10 10 10 10 10 10 10 10 10 10 10 10 10 10 10 10 10 9 9 9 9 9 9 9 9 8 8 8 8 8 8 8 8 8 8 8 8 8
10 10 10 10 10 10 10 10 10 9 9 9 9 9 9 9 9 9 9 9 9 9 9 9 9 9 9 9 8 8 8 8 8 8 8 8 8 8 7 7 7 7 7
9 10 10 9 9 9 9 9 9 9 9 9 9 9 9 9 9 9 9 8 8 8 8 8 8 8 9 8 8 8 8 8 8 8 7 7 7 7 7 7 7 7 7
9 9 9 9 9 9 9 9 9 8 8 8 8 7 7 8 8 8 8 8 8 8 8 8 8 8 8 8 8 8 7 7 7 7 7 7 7 7 7 7 7 6 6
8 8 8 8 8 8 8 8 8 8 8 7 7 7 7 7 7 7 7 7 7 7 7 7 7 7 7 7 7 7 7 7 7 7 7 7 6 6 6 6 6 6 6
8 8 8 8 8 8 8 8 7 7 7 7 7 6 6 6 6 6 6 7 7 7 7 7 7 7 7 7 7 7 6 6 6 6 6 6 6 6 6 6 6 6 6
7 7 7 7 7 7 7 7 7 7 6 6 6 6 6 6 5 5 5 6 6 6 6 6 6 6 6 6 6 6 6 6 6 6 6 6 6 6 6 5 5 5 5
6 6 6 6 6 6 6 6 6 6 6 6 6 5 5 5 5 5 5 5 5 5 5 5 5 5 5 5 5 5 5 5 5 5 5 5 5 5 5 5 5 5 5
6 6 6 6 6 6 6 6 6 6 5 5 5 5 5 5 5 5 4 4 4 4 4 5 5 5 5 5 5 5 5 5 5 5 5 5 5 5 5 5 4 4 4
5 5 5 5 5 5 5 5 5 5 5 5 5 4 4 4 4 4 4 4 4 3 4 4 4 4 4 4 4 4 4 4 4 4 4 4 4 4 4 4 4 4 4
5 5 5 5 5 5 5 4 4 4 4 4 4 4 4 4 4 4 3 3 3 3 3 3 4 4 4 4 4 4 4 4 4 4 4 4 4 4 4 4 4 4 4
4 4 4 4 4 4 4 4 4 4 4 4 4 4 3 3 3 3 3 3 3 3 3 3 3 3 3 3 3 3 3 3 3 3 3 3 3 3 3 3 3 3 3
3 3 3 3 3 3 3 3 3 3 3 3 3 3 3 3 3 3 3 3 3 3 3 3 3 3 3 3 3 3 3 3 3 3 3 3 3 3 3 3 3 3 3
3 3 3 3 3 3 3 3 3 3 3 3 3 2 2 2 2 2 2 2 2 2 2 2 2 2 2 2 2 2 2 2 3 3 3 2 2 2 2 2 2 2 2
2 2 3 2 2 2 2 3 3 2 2 2 2 2 2 2 2 2 2 2 2 2 2 1 2 2 2 2 2 2 2 2 2 2 2 2 2 2 2 2 2 2 2
2 2 2 2 2 2 2 2 2 2 2 2 2 2 1 1 1 1 1 1 1 1 1 1 1 1 1 1 1 1 1 2 2 2 2 2 2 1 1 2 2 1 1
1 1 1 1 1 1 1 1 2 1 1 1 1 1 1 1 1 1 1 1 1 1 1 1 1 0 1 0 0 1 1 1 1 1 1 1 1 1 1 1 1 1 1
1 1 1 1 1 1 1 1 1 1 1 1 0 1 0 0 -0 0 0 0 0 0 0 0 0 0 0 0 0 0 0 0 0 0 0 1 1 1 1 1 1 1 1
-0 -0 0 0 0 0 0 0 0 0 0 0 0 -0 -0 -0 -0 -0 -0 -0 -0 -0 -0 -0 -0 -0 -0 -0 -0 -0 -0 -0 -0 -0 -0 -0 0 0 0 0 0 0 0
-1 -1 -1 -0 -0 -0 -0 -0 -0 -0 -1 -1 -1 -1 -1 -1 -1 -1 -1 -1 -1 -1 -1 -1 -1 -1 -1 -1 -1 -1 -1 -1 -1 -1 -1 -1 -0 -0 -0 0 0 -0 -0
-1 -1 -1 -1 -1 -1 -1 -1 -1 -1 -1 -1 -1 -1 -1 -1 -1 -1 -1 -1 -1 -1 -1 -1 -1 -1 -1 -1 -1 -1 -1 -1 -1 -1 -1 -1 -1 -1 -1 -1 -0 -1 -1
-2 -2 -2 -2 -2 -2 -2 -2 -2 -2 -2 -2 -2 -2 -2 -2 -1 -2 -1 -1 -1 -1 -1 -1 -1 -1 -1 -1 -1 -2 -2 -2 -2 -2 -2 -2 -2 -2 -2 -1 -1 -1 -1
Wind_Speed
2 2 2 3 3 3 3 1 1 1 1 1 1 1 1 1 2 3 4 4 3 2 2 2 2 2 3 3 4 4 4 5 5 6 6 7 7 8 8 8 9 9 10
2 2 3 3 2 3 2 2 1 1 1 1 0 0 0 1 1 3 4 3 3 3 3 3 3 3 4 4 5 5 5 5 6 7 7 7 7 8 9 9 10 10 11
3 2 2 3 2 2 2 2 1 1 1 0 0 1 0 0 0 1 3 3 4 3 3 4 4 4 5 5 5 6 6 6 6 7 7 8 8 9 9 10 10 11 11
3 2 3 3 2 2 2 2 1 1 0 0 1 1 1 0 1 1 2 2 3 3 3 4 4 5 5 6 6 6 6 7 8 8 8 8 9 9 10 11 11 12 12
4 3 3 3 3 2 2 2 1 1 1 0 1 1 1 1 1 1 1 1 2 2 2 4 5 6 6 6 7 7 7 7 8 8 9 9 10 10 11 12 12 13 13
4 3 3 3 3 3 2 2 2 1 1 0 1 2 2 2 1 1 1 1 2 3 3 3 4 5 7 8 8 8 8 8 8 8 9 10 11 11 12 13 13 13 14
4 3 3 3 3 4 3 3 2 2 1 1 0 1 2 2 2 2 1 1 2 2 3 4 3 3 4 7 8 9 9 9 9 9 10 11 11 12 12 13 13 13 14
3 3 3 3 4 3 4 3 3 2 1 1 1 0 2 2 2 3 1 2 2 1 2 3 3 3 3 4 6 8 9 10 10 10 10 11 12 12 13 13 14 14 14
3 3 3 2 4 4 4 4 4 3 3 2 1 1 1 2 2 2 3 2 2 2 2 1 2 4 4 4 4 6 8 10 11 11 11 11 12 13 13 13 13 14 14
3 4 4 3 3 3 4 4 3 3 3 2 2 2 2 1 1 2 2 2 3 3 3 2 2 3 4 4 5 6 7 9 10 11 12 12 12 13 13 14 14 14 14
2 3 3 3 3 3 4 3 3 3 2 3 2 2 2 2 2 2 3 3 3 3 3 3 2 2 4 4 5 6 8 9 10 11 11 12 13 13 14 14 14 14 14
2 2 3 3 3 4 4 4 4 4 3 3 2 2 2 2 2 2 4 4 4 3 3 3 3 3 4 5 7 8 8 9 10 10 11 12 13 13 13 13 13 14 14
2 2 2 3 3 4 4 4 4 4 4 3 3 3 2 3 2 2 3 4 4 4 3 3 3 3 4 5 6 8 9 9 10 11 11 12 13 12 13 13 14 14 15
2 2 2 3 3 3 3 4 3 4 3 4 4 3 3 3 2 2 3 3 4 4 3 4 2 3 3 4 6 8 7 10 11 11 11 11 11 12 13 13 13 14 14
2 2 2 3 3 4 4 4 4 4 4 4 4 4 3 3 3 3 3 3 4 5 6 4 2 3 3 5 7 6 6 10 11 11 11 10 10 11 13 13 13 13 14
2 3 3 3 3 4 4 4 3 3 3 3 3 3 3 3 3 3 3 3 4 5 6 4 3 3 4 5 8 6 7 9 10 11 11 11 11 11 12 13 12 13 13
2 3 2 3 3 4 4 4 4 4 4 4 4 4 4 4 3 3 3 3 3 4 6 6 3 3 4 5 5 5 7 6 7 11 11 11 11 11 12 13 13 13 14
2 2 2 2 3 3 4 4 4 4 4 5 4 4 4 4 4 3 3 4 4 4 5 7 5 4 5 4 4 5 5 6 7 10 11 11 11 12 12 12 13 12 13
2 2 1 2 3 3 3 3 4 4 4 4 4 4 4 4 4 3 4 4 4 4 4 5 6 4 4 4 4 5 5 5 6 8 9 10 11 11 11 12 12 12 11
1 1 1 2 2 2 2 3 3 3 3 3 3 4 4 4 5 4 4 4 3 3 4 4 5 4 4 4 3 4 5 4 5 5 7 9 10 11 11 11 11 11 10
1 0 0 1 1 2 2 2 2 2 2 2 2 3 4 4 6 5 5 4 3 3 4 4 5 5 4 3 4 3 5 5 5 3 4 5 5 5 6 9 10 9 9
1 1 1 1 1 2 3 3 2 1 2 2 2 2 2 3 4 5 6 6 5 5 5 5 5 5 5 5 4 4 4 5 5 2 3 5 4 5 5 5 7 8 9
2 2 2 2 2 2 3 3 3 2 1 2 2 2 3 3 3 3 4 5 5 6 7 6 6 6 6 5 5 5 5 5 5 3 3 5 4 4 5 7 8 8 8
2 2 2 2 2 3 4 3 3 2 1 1 1 2 2 3 3 3 3 3 3 4 5 4 4 5 5 5 5 5 5 5 4 3 2 4 4 4 5 6 7 7 8
2 2 2 2 2 3 4 5 4 1 1 2 2 2 2 2 4 5 3 3 3 3 4 5 6 5 6 6 5 3 3 3 4 3 1 2 3 4 4 4 5 7 8
1 1 2 2 2 2 4 5 5 1 1 2 2 2 3 4 5 5 3 2 3 4 4 4 4 5 4 5 5 3 3 4 4 3 1 2 2 2 3 3 3 5 6
Wind_Direction
136 136 143 137 133 128 126 135 136 130 135 137 173 155 137 139 119 111 118 136 155 193 220 239 270 289 298 305 304 304 308 310 306 308 311 313 314 316 318 318 317 316 316
135 146 138 143 135 134 142 155 153 143 145 131 159 234 157 143 118 124 136 157 178 202 219 240 260 277 287 290 294 293 294 298 300 300 303 309 311 311 310 311 312 314 315
140 158 142 142 138 131 141 147 113 94 129 125 295 296 60 89 197 164 155 165 184 199 224 247 260 273 283 286 290 290 288 290 294 295 299 302 305 307 307 308 310 310 311
143 153 156 150 144 134 130 139 129 141 170 238 297 296 304 219 211 233 195 176 171 188 221 248 268 275 280 284 287 291 290 288 288 290 294 295 298 302 304 305 305 306 306
155 145 160 152 144 142 141 141 127 153 149 357 309 290 294 279 256 234 205 171 185 194 209 241 262 270 272 279 282 286 289 286 286 288 292 294 296 298 299 301 301 301 301
166 156 161 158 153 151 154 155 159 132 145 185 290 293 275 261 253 256 240 212 206 211 226 246 254 265 270 274 281 285 286 288 291 292 292 294 296 294 295 297 298 298 298
171 163 165 165 163 165 168 160 153 150 166 154 319 298 286 257 244 250 234 237 222 219 227 229 236 256 273 276 278 282 284 287 289 290 293 294 297 297 297 300 299 301 301
162 171 168 181 174 169 169 167 158 171 194 181 185 287 298 295 281 258 253 245 250 232 233 237 235 251 266 272 279 281 282 286 289 290 292 294 296 297 296 297 297 297 299
181 173 175 184 179 176 182 182 178 181 192 223 201 189 209 244 295 265 242 239 247 257 256 241 250 254 254 260 274 282 286 287 289 291 294 298 298 298 298 297 298 297 299
182 181 179 189 189 184 186 194 190 200 186 208 239 242 231 210 239 289 288 265 261 257 255 261 247 253 257 265 274 282 283 292 296 296 296 298 300 299 299 300 300 301 301
183 174 181 181 194 193 196 200 201 207 208 211 219 243 252 258 237 248 278 286 289 270 257 252 241 240 249 254 265 272 279 284 288 297 303 300 299 300 299 300 301 302 303
206 192 186 190 201 198 202 205 202 210 216 222 231 233 234 237 242 235 259 276 279 275 272 257 247 245 246 248 260 267 273 280 286 291 299 302 300 300 303 304 303 302 301
220 220 207 209 214 213 208 201 200 207 206 214 227 237 245 252 248 247 253 268 278 277 264 260 247 239 250 251 259 265 272 279 285 287 293 301 303 301 302 304 304 304 303
222 218 232 235 231 219 217 207 209 213 209 212 228 229 238 249 248 243 239 255 278 277 265 259 261 245 264 266 267 267 274 282 286 288 290 297 303 303 301 302 304 305 304
229 215 233 240 240 227 218 213 215 218 217 216 219 223 234 244 240 247 245 236 243 270 273 259 260 267 279 274 275 273 272 278 285 288 292 295 298 302 303 301 303 305 305
245 235 236 238 238 235 221 214 219 219 223 230 224 220 233 242 239 237 237 243 242 249 269 267 270 287 289 285 284 283 279 283 283 286 289 291 293 297 302 302 301 302 303
258 242 239 251 248 242 222 213 216 215 222 233 237 234 239 239 238 240 240 244 251 248 263 279 281 291 290 289 291 285 285 282 282 283 284 287 291 295 299 302 301 300 302
268 255 241 256 251 249 231 215 222 223 223 228 231 235 243 249 248 249 248 250 255 253 257 274 285 284 282 278 278 279 287 285 281 283 284 285 289 294 297 300 301 300 301
278 261 236 259 257 251 248 231 224 222 227 231 231 235 240 242 250 253 256 254 257 263 262 266 277 283 283 282 288 288 280 279 285 288 286 285 288 293 295 296 298 298 299
290 251 228 258 263 262 255 244 236 222 224 231 235 239 241 238 243 246 255 253 258 267 268 267 276 284 288 286 293 292 296 291 290 295 298 296 292 293 295 297 297 294 297
320 296 240 265 270 267 254 246 239 236 226 238 248 250 255 255 260 261 263 252 248 254 258 263 270 279 284 293 289 287 291 295 289 284 295 301 300 297 297 298 298 299 301
356 42 11 313 295 296 297 302 306 247 235 234 249 261 266 261 268 275 279 278 265 255 253 254 260 267 276 280 283 286 291 297 292 296 305 296 299 291 296 292 298 299 301
23 31 14 9 351 337 327 333 330 320 269 257 263 275 284 280 282 273 283 290 290 284 266 251 252 262 270 273 276 279 282 285 282 287 303 288 289 288 301 298 300 300 298
27 22 19 19 13 349 347 347 346 352 346 322 296 284 283 290 286 283 282 285 285 288 283 274 256 263 270 270 263 264 270 281 279 283 281 281 291 287 301 302 299 306 310
16 7 7 20 19 359 353 349 350 351 354 330 312 303 296 299 299 298 286 283 294 302 303 283 273 276 286 292 292 288 289 287 284 284 286 282 295 301 297 297 317 327 328
358 357 11 21 14 359 351 350 347 353 352 334 333 331 321 322 320 316 310 300 299 301 306 309 303 295 296 301 302 286 275 276 281 288 306 309 298 320 314 297 315 337 336
Height
1502 1503 1505 1506 1507 1508 1510 1512 1513 1514 1515 1516 1517 1517 1518 1518 1519 1519 1519 1520 1520 1520 1520 1520 1520 1519 1519 1519 1518 1517 1517 1516 1516 1515 1515 1514 1513 1512 1511 1510 1509 1508 1507
1500 1501 1503 1504 1505 1507 1508 1510 1511 1512 1513 1514 1514 1515 1516 1516 1517 1517 1517 1517 1518 1518 1518 1517 1517 1517 1517 1516 1515 1515 1515 1514 1513 1513 1512 1511 1510 1510 1509 1508 1507 1505 1504
1498 1499 1501 1502 1503 1505 1506 1508 1509 1510 1511 1512 1512 1513 1513 1514 1514 1515 1515 1515 1515 1515 1515 1515 1515 1514 1514 1513 1513 1512 1512 1511 1511 1510 1509 1508 1507 1507 1506 1505 1503 1502 1501
1495 1497 1498 1499 1501 1502 1504 1505 1506 1508 1508 1509 1510 1510 1511 1511 1511 1512 1512 1512 1512 1512 1512 1512 1512 1512 1511 1511 1510 1509 1509 1508 1508 1507 1506 1505 1504 1503 1502 1501 1500 1499 1497
1492 1494 1495 1497 1498 1499 1501 1502 1503 1505 1505 1506 1507 1507 1508 1508 1508 1509 1509 1509 1509 1509 1509 1509 1509 1508 1508 1508 1507 1506 1506 1505 1505 1504 1503 1502 1501 1500 1499 1498 1496 1495 1494
1489 1491 1492 1494 1495 1496 1497 1499 1500 1502 1502 1503 1503 1504 1504 1505 1505 1506 1506 1506 1506 1506 1506 1505 1505 1505 1505 1504 1504 1503 1503 1502 1501 1500 1499 1498 1497 1496 1495 1494 1493 1491 1490
1486 1487 1489 1491 1492 1493 1494 1495 1496 1498 1499 1500 1500 1500 1501 1502 1502 1502 1502 1502 1503 1503 1502 1502 1502 1501 1501 1500 1500 1500 1499 1499 1498 1497 1496 1495 1494 1492 1491 1490 1488 1487 1486
1483 1484 1485 1487 1488 1489 1491 1492 1493 1494 1495 1497 1498 1497 1497 1498 1498 1498 1498 1499 1499 1499 1499 1498 1498 1497 1497 1496 1496 1496 1495 1495 1494 1493 1492 1490 1489 1488 1487 1485 1484 1482 1481
1479 1480 1482 1484 1485 1486 1487 1488 1489 1491 1492 1493 1495 1496 1495 1494 1494 1494 1494 1495 1495 1495 1495 1494 1494 1493 1493 1492 1492 1491 1491 1490 1490 1489 1487 1486 1485 1484 1482 1481 1479 1478 1476
1476 1477 1478 1480 1481 1482 1483 1485 1486 1487 1488 1489 1491 1491 1492 1492 1492 1490 1491 1491 1491 1491 1491 1490 1490 1489 1489 1488 1487 1487 1486 1485 1485 1484 1483 1481 1480 1479 1478 1476 1474 1473 1471
1472 1473 1475 1476 1477 1479 1480 1481 1482 1484 1485 1486 1486 1487 1488 1488 1488 1488 1486 1486 1487 1487 1487 1486 1486 1485 1485 1484 1483 1482 1482 1481 1480 1479 1477 1476 1475 1474 1472 1471 1469 1468 1466
1469 1470 1471 1472 1474 1475 1476 1477 1479 1480 1481 1482 1483 1483 1484 1484 1484 1484 1483 1482 1482 1482 1482 1482 1481 1481 1480 1480 1479 1478 1477 1476 1475 1474 1473 1471 1470 1469 1467 1465 1464 1462 1460
1465 1467 1468 1470 1470 1472 1473 1474 1475 1476 1477 1478 1479 1479 1480 1480 1481 1481 1481 1479 1478 1477 1477 1476 1477 1476 1476 1475 1475 1474 1473 1472 1470 1469 1468 1466 1465 1463 1462 1460 1458 1457 1455
1462 1464 1465 1466 1467 1468 1470 1471 1471 1472 1473 1474 1474 1475 1475 1476 1477 1477 1477 1476 1474 1473 1472 1471 1472 1472 1472 1471 1470 1469 1468 1467 1465 1464 1463 1461 1460 1458 1457 1455 1453 1451 1450
1459 1460 1461 1463 1464 1465 1466 1467 1467 1468 1469 1469 1470 1470 1471 1471 1472 1472 1472 1473 1473 1469 1467 1466 1467 1467 1467 1466 1465 1464 1463 1462 1460 1459 1458 1456 1454 1453 1451 1449 1448 1446 1444
1455 1456 1458 1459 1459 1461 1462 1462 1463 1464 1464 1465 1465 1466 1466 1467 1467 1467 1468 1468 1468 1467 1463 1462 1462 1462 1462 1461 1461 1459 1458 1457 1455 1454 1452 1451 1450 1448 1446 1444 1443 1441 1439
1452 1453 1454 1455 1456 1456 1457 1458 1458 1459 1460 1460 1461 1461 1461 1462 1462 1463 1463 1463 1462 1462 1459 1457 1458 1458 1457 1456 1455 1455 1453 1451 1450 1449 1447 1446 1444 1443 1441 1439 1438 1436 1434
1448 1449 1450 1451 1452 1452 1453 1453 1454 1454 1455 1455 1456 1456 1457 1457 1457 1458 1458 1458 1458 1457 1456 1453 1452 1452 1452 1452 1451 1450 1448 1447 1445 1444 1442 1441 1439 1438 1436 1434 1432 1431 1429
1445 1446 1446 1447 1448 1448 1449 1449 1450 1450 1450 1451 1451 1452 1452 1452 1452 1453 1453 1452 1452 1452 1452 1450 1448 1448 1447 1447 1446 1445 1443 1442 1440 1439 1437 1436 1434 1433 1431 1429 1428 1426 1424
1441 1442 1442 1443 1444 1444 1445 1445 1445 1446 1446 1446 1447 1447 1448 1448 1448 1448 1448 1447 1447 1447 1447 1446 1444 1443 1442 1442 1441 1440 1438 1437 1436 1434 1433 1431 1430 1428 1427 1425 1423 1422 1420
1438 1438 1439 1439 1440 1440 1441 1441 1441 1441 1441 1441 1442 1443 1443 1443 1443 1444 1443 1443 1442 1442 1442 1441 1440 1439 1438 1437 1437 1436 1434 1433 1431 1430 1428 1427 1425 1423 1422 1420 1419 1417 1416
1435 1435 1435 1436 1436 1437 1437 1437 1437 1437 1437 1437 1437 1438 1438 1439 1439 1439 1439 1439 1439 1438 1437 1436 1435 1434 1433 1434 1433 1432 1431 1429 1426 1426 1424 1422 1421 1419 1418 1416 1415 1413 1412
1433 1433 1433 1433 1433 1433 1434 1434 1433 1433 1433 1434 1434 1434 1434 1434 1435 1435 1434 1434 1434 1434 1433 1432 1431 1430 1430 1429 1429 1427 1426 1425 1423 1422 1420 1417 1417 1415 1414 1412 1411 1409 1408
1431 1431 1431 1431 1431 1431 1431 1430 1430 1430 1430 1430 1431 1431 1431 1430 1431 1431 1430 1429 1429 1428 1428 1427 1427 1426 1426 1425 1425 1424 1422 1421 1419 1418 1417 1414 1412 1411 1410 1408 1407 1406 1404
1429 1429 1429 1428 1428 1428 1429 1428 1428 1427 1427 1427 1428 1428 1428 1427 1427 1427 1426 1425 1424 1424 1423 1423 1422 1422 1421 1421 1421 1420 1418 1417 1415 1414 1414 1412 1409 1408 1407 1405 1403 1402 1401
1428 1428 1427 1427 1427 1427 1427 1426 1426 1425 1425 1425 1425 1425 1425 1424 1424 1424 1423 1422 1420 1420 1419 1419 1418 1417 1417 1417 1417 1416 1415 1414 1412 1411 1410 1409 1407 1406 1404 1402 1401 1399 1398